STARLINK-36554, 67517

Orbit data source: Space-Track

STARLINK-36554, 67517 is a payload satellite owned by SpaceX/Seattle (US) in LEO that was launched on Sun, 18 Jan 2026 UTC via an FALCON 9 launch vehicle from the Air Force Eastern Test Range (AFETR). Payload-class satellites include a variety of spacecraft equipped with specific instruments for various scientific and technological missions. These include communications satellites like Starlink; space stations such as the ISS; scientific satellites like the Hubble; Earth observation satellites from companies like Planet Labs, Umbra, and HawkEye 360; GPS; miniature CubeSats for education and research; and military/defense satellites.

Loading next visibility...
Identifier
67517, 2026-012AA
Orbit
LEO
Country
Flag of USUS
Related business
Manufacturer
SpaceX/Seattle
Mission
Operational spacecraft
Bus & Motor
STARLINK V2MO, Unknown motor
Mass
575 kg wet, ~530 kg dry
Launch date (UTC)
2026-01-18 (2 weeks ago)
Launch vehicle
FALCON 9
Launch site
Air Force Eastern Test Range (AFETR)
Object type
Payload
Rocket body
Debris
Shape & HBR
Unknown shape, 17.7 m
Radar Cross Section
RCS unknown

Expand to show TLE details & history
Last TLE update: 18 hours ago

TLE from 18 hours ago
0 STARLINK-36554
1 67517U 26012AA  26034.41668981 -.01937276  00000-0 -10910-1 0  9994
2 67517  42.9968 151.4872 0001157 267.1194 317.3271 15.81344083  3552
Epoch: 2026-02-03T10:00Z
TLE epoch observation values (Epoch: 2026-02-03T10:00:01.999Z)
Latitude
-28.69735°
Longitude
83.59917°
Altitude
333.563 km
Speed
7.709 km/s
True Right ascension
00h 28m 49s
True Declination
-28° 32' 37"
Sunlit
Object was in daylight at epoch
Visualization orbit readout
Latitude
Unknown
Longitude
Unknown
Altitude
Unknown
Speed
Unknown
Apparent Right ascension
Unknown
Apparent Declination
Unknown
Sunlit
N/A
Visualization observer readout
Local Sidereal Time
05:54:51
Azimuth
Unknown
Elevation
Unknown
Doppler factor
Unknown
Orbital elements
Apogee altitude
329.406 km
Perigee altitude
327.854 km
Semi-major axis
6,706.767 km
Eccentricity
0.00012
Inclination
42.9968°
RAAN
151.4872°
Arg. of periapsis
267.1194°
True anomaly
317.31811°
Mean anomaly
317.3271°
Eccentric anomaly
317.32261°
Mean motion
3.9516 °/min
Orbital period
91.1 mins
BSTAR
-0.01091
Loading maneuver chart data...
Computing Atmospheric mass density...
Loading historical data...
Loading historical data...
Loading historical data...
Loading historical data...
Loading historical data...
Loading historical data...
Loading historical data...

Documentation

Showing up to 5 results
|